CZ-6A DEB, 54522

Orbit data source: Space-Track

CZ-6A DEB, 54522 is space debris in SSO originally from a launch on Fri, 11 Nov 2022 UTC launched from the Taiyaun Space Center, China (TSC). Debris objects in space refer to the collection of defunct objects orbiting the Earth. Examples of debris include non-operational satellites, rocket bodies, and fragments generated from explosions, collisions, or faulty payload assembly.

Loading next visibility...
Identifier
54522, 2022-151KA
Orbit
SSO
Country
Flag of CNCN / PRC
Related business
Manufacturer
SAST
Mission
Spacecraft
Bus & Motor
Unknown
Mass
Unknown
Launch date (UTC)
2022-11-11 (4 years ago)
Launch vehicle
Unknown
Launch site
Taiyaun Space Center, China (TSC)
Object type
Payload
Rocket body
Debris
Shape & HBR
Unknown shape, 0.1 m
Radar Cross Section
Small (<0.1 m²)

Expand to show TLE details & history
Last TLE update: 15 hours ago

TLE from 15 hours ago
0 CZ-6A DEB
1 54522U 22151KA  26235.38938065  .00000289  00000-0  20796-3 0  9995
2 54522  98.8917 214.9528 0107506 241.1439 117.8903 14.01955517193051
Epoch: 2026-08-23T09:20Z
TLE epoch observation values (Epoch: 2026-08-23T09:20:42.488Z)
Latitude
-0.00009°
Longitude
103.08965°
Altitude
927.109 km
Speed
7.369 km/s
True Right ascension
14h 19m 48s
True Declination
0° 00' 00"
Sunlit
Object was in daylight at epoch
Visualization orbit readout
Latitude
Unknown
Longitude
Unknown
Altitude
Unknown
Speed
Unknown
Apparent Right ascension
Unknown
Apparent Declination
Unknown
Sunlit
N/A
Visualization observer readout
Local Sidereal Time
15:52:59
Azimuth
Unknown
Elevation
Unknown
Doppler factor
Unknown
Orbital elements
Apogee altitude
962.297 km
Perigee altitude
806.148 km
Semi-major axis
7,262.359 km
Eccentricity
0.01075
Inclination
98.8917°
RAAN
214.9528°
Arg. of periapsis
241.1439°
True anomaly
118.97227°
Mean anomaly
117.8903°
Eccentric anomaly
118.43197°
Mean motion
3.50693 °/min
Orbital period
102.65 mins
BSTAR
0.00020796
Loading maneuver chart data...
Computing Atmospheric mass density...

Documentation

Showing up to 5 results
|